Flag Weather past 2 weeks in Yonkers, New York, U.S.A.

Now
35 °F

Light rain. Mostly cloudy.


Feels Like: 26 °F
Forecast: 32 / 37 °F
Wind: 15 mph from North

Location: Teterboro Airport

Current Time: Nov 26, 2014 at 7:32:29 PM

Latest Report: Nov 26, 2014 at 6:51 PM


Visibility: 3 mi

Pressure: 29.79 "Hg

Humidity: 88%

Dew point: 32 °F

Location of YonkersLocation

Historic Weather in Yonkers — Graph

°F

Yonkers temperature yesterday

Maximum temperature yesterday: 67 °F (at 12:51 AM)
Minimum temperature yesterday: 48 °F (at 8:51 PM)
Average temperature yesterday: 56 °F

Past Weeks' High & Low Weather Summary

 TemperatureHumidityPressure
High72 °F (Nov 24, 1:51 PM)96% (Nov 12, 7:51 AM)30.51 "Hg (Nov 12, 7:51 AM)
Low22 °F (Nov 19, 3:51 AM)26% (Nov 22, 1:51 PM)29.51 "Hg (Nov 17, 7:51 PM)
Average42 °F57%30.05 "Hg
* Reported Nov 11 5:51 PM — Nov 26 5:51 PM, Yonkers, Weather by CustomWeather, © 2014

Note: Actual official high and low records may vary slightly from our data, if they occured in-between our weather recording intervals... More about our weather records

Advertising

Yonkers weather history for previous 24 hours

 ConditionsComfort  
Time TempWeatherWind HumidityBarometerVisibility
5:51 PM
Nov 26
36 °FLight rain. Mostly cloudy.12 mph85%29.80 "Hg5 mi
4:59 PM36 °FLight rain. Mostly cloudy.13 mph81%29.77 "Hg2 mi
3:59 PM36 °FLight rain. Cloudy.10 mph87%29.83 "Hg5 mi
2:58 PM34 °FSleet. Partly sunny.9 mph87%29.88 "Hg4 mi
1:51 PM34 °FLight snow. Fog.8 mph88%29.95 "Hg1 mi
12:51 PM34 °FLight snow. Fog.6 mph88%30.03 "Hg1 mi
11:51 AM34 °FLight snow. Fog.6 mph88%30.03 "Hg1 mi
10:51 AM34 °FLight snow. Low clouds.5 mph88%30.10 "Hg1 mi
9:51 AM35 °FSleet. Low clouds.3 mph88%30.12 "Hg2 mi
8:59 AM37 °FRain. Fog.8 mph87%30.12 "Hg2 mi
7:51 AM41 °FLight rain. Overcast.6 mph76%30.15 "Hg5 mi
6:51 AM44 °FLight rain. Overcast.6 mph60%30.14 "Hg7 mi
5:51 AM45 °FLight rain. Mostly cloudy.13 mph56%30.11 "Hg10 mi
4:51 AM47 °FLight rain. Mostly cloudy.10 mph48%30.12 "Hg10 mi
3:51 AM48 °FPassing clouds.No wind46%30.17 "Hg10 mi
2:51 AM48 °FPassing clouds.6 mph50%30.20 "Hg10 mi
1:51 AM47 °FClear.3 mph54%30.16 "Hg10 mi
12:51 AM49 °FClear.5 mph46%30.14 "Hg10 mi
11:51 PM
Nov 25
48 °FClear.7 mph50%30.15 "Hg10 mi
10:51 PM48 °FClear.6 mph52%30.15 "Hg10 mi
9:51 PM49 °FClear.6 mph48%30.12 "Hg10 mi
8:51 PM48 °FClear.6 mph50%30.11 "Hg10 mi
7:51 PM51 °FClear.6 mph42%30.08 "Hg10 mi
Weather by CustomWeather, © 2014

See weather overviewHow to use our weather pages